Regional Weather Roundup
Issued by NWS Grand Forks, ND

Home | Current Version | Previous Version | Graphics & Text | Print | Product List | Glossary On
Versions: 1 2 3 4 5 6 7 8 9 10 11 12 13 14 15 16 17 18 19 20 21 22 23 24 25 26 27 28 29 30 31 32 33 34 35 36 37 38 39 40 41 42 43 44 45 46 47 48 49 50
000
ASUS43 KFGF 250731
RWRFGF
PRAIRIE TO PINES  WEATHER ROUNDUP
NATIONAL WEATHER SERVICE EASTERN NORTH DAKOTA/GRAND FORKS ND
200 AM CDT MON SEP 25 2017

 **SATELLITE DATA USED TO AUGMENT SKY COVER AT AUTOMATED STATIONS**
 *****  WEATHER ACROSS EASTERN NORTH DAKOTA  *****

CITY           SKY/WX    TMP DP  RH WIND       PRES   REMARKS
GRAND FORKS    CLOUDY    50  49  96 NW9       30.04R
GRAND FRKS AFB DRIZZLE   50  50 100 N7        30.07R
DEVILS LAKE    CLOUDY    47  44  90 N8        30.10R
FARGO          CLOUDY    51  50  96 NW10      30.04R
WAHPETON ARPT  CLOUDY    50  46  87 NW7       30.05R
$$

 ***** WEATHER ACROSS CENTRAL AND WESTERN NORTH DAKOTA  *****

CITY           SKY/WX    TMP DP  RH WIND       PRES   REMARKS
BISMARCK       CLOUDY    49  46  90 NW6       30.12R
MINOT          CLOUDY    48  44  86 W7        30.12R
JAMESTOWN      CLOUDY    48  46  93 NW8       30.08R
MINOT AFB      CLOUDY    46  44  94 W6        30.11R
GARRISON         N/A     45  45 100 NW6       30.12R
WILLISTON      CLOUDY    46  44  93 SW3       30.14S
DICKINSON      CLOUDY    44  39  82 W3        30.11F
HETTINGER      CLOUDY    43  40  89 N3        30.13F
$$

 *****  OTHER AIRPORT OBSERVATIONS IN OUR AREA  *****

CITY           SKY/WX    TMP DP  RH WIND       PRES   REMARKS
WALHALLA       FAIR     N/A N/A N/A NW13      30.07R
GRAFTON AIRPOR NOT AVBL
VALLEY CITY AR NOT AVBL
CANDO          CLOUDY    46  46 100 NW5       30.12R
CAVALIER APRT  CLOUDY    48  46  93 N14G21    30.05R
GWINNER          N/A     50  48  93 CALM      30.07R
ROLLA          CLOUDY    45  45 100 N9        30.11R
 ***** THE ABOVE OBSERVATIONS ARE NON NWS ARE NOT QUALITY
       CONTROLLED AND MAY MIS-REPORT RAIN FOR SNOW...
$$

  *****  WEATHER ACROSS NORTHERN MINNESOTA  *****

CITY           SKY/WX    TMP DP  RH WIND       PRES   REMARKS
FLAG ISLAND    CLOUDY    50  48  93 NW15      29.95R
WARROAD        CLOUDY    48  45  87 NW6       29.99R
ROSEAU         CLOUDY    48  45  87 NW6       29.99R
HALLOCK        CLOUDY    48  46  93 N13       30.03R
THF RVR FALLS  CLOUDY    48  47  96 NW12      30.02R
BAUDETTE       CLOUDY    49  49 100 W9        29.95R
WASKISH        CLOUDY    52  48  87 W12       29.98R
CROOKSTON      CLOUDY    48  48 100 N13       30.04R
STEPHEN NDAWN    N/A     48  46  93 NW9         N/A
GREENBUSH NDAW   N/A     48  46  93 NW7         N/A
$$
  *****  WEATHER ACROSS CENTRAL AND WEST MINNESOTA  *****

CITY           SKY/WX    TMP DP  RH WIND       PRES   REMARKS
FOSSTON        CLOUDY    46  46 100 NW9       30.02R FOG
BEMIDJI        CLOUDY    48  47  97 NW6       29.99S
PARK RAPIDS    FAIR      50  46  86 NW7       30.00R
ELBOW LAKE     CLOUDY    50  48  95 N13G18    30.03S
WADENA         CLOUDY    48  48 100 NW8       30.00S
DETROIT LAKES  CLOUDY    48  46  93 NW12      30.03R FOG
MOORHEAD       CLOUDY    50  48  93 NW9       30.05R
FERGUS FALLS   CLOUDY    50  50 100 N7        30.04R
MORRIS MN      CLOUDY    52  50  93 N13       30.02R
STAPLES        CLOUDY    50  48  93 NW9       29.99S
$$
  *****  WEATHER ELSEWHERE ACROSS MINNESOTA  *****

CITY           SKY/WX    TMP DP  RH WIND       PRES   REMARKS
DULUTH         CLOUDY    65  65 100 W8        29.91R
INTRNTL FALLS  CLOUDY    53  51  93 W8        29.92R
ELY            CLOUDY    61  61 100 W8        29.90R
CLOQUET        CLOUDY    64  61  88 W12       29.93R
WHEATON        CLOUDY    52  48  87 NW8       30.06R
BRAINERD       CLOUDY    55  51  86 NW10      29.98R
HIBBING        CLOUDY    56  55  97 NW8       29.93R
ALEXANDRIA     CLOUDY    52  50  93 N10       30.01R
SAINT CLOUD    CLOUDY    58  58 100 NW8       29.97R
MINNEAPOLIS    CLOUDY    68  64  87 W7        29.94S
$$

  *****  WEATHER ACROSS SOUTH DAKOTA  *****

CITY           SKY/WX    TMP DP  RH WIND       PRES   REMARKS
SIOUX FALLS    RAIN      54  54 100 NE8       30.01R FOG
BROOKINGS      RAIN      51  50  96 N8        30.04R
WATERTOWN      CLOUDY    50  49  96 N9        30.04R
HURON          CLOUDY    51  48  89 N9        30.05F
SISSETON         N/A     51  49  92 N9        30.04R
ABERDEEN       CLOUDY    49  47  93 N10       30.07S
MITCHELL       CLOUDY    52  50  93 N12       30.03S
PIERRE         CLOUDY    49  46  90 N9        30.10R
MOBRIDGE       CLOUDY    50  46  86 N10       30.08S
RAPID CITY     NOT AVBL
$$

  *****  SOME WEATHER IN NEARBY STATES *****

CITY           SKY/WX    TMP DP  RH WIND       PRES   REMARKS
GLASGOW MT     FAIR      39  36  89 E9        30.11S
GREAT FALLS MT FAIR      39  29  67 S8        30.04F
CHEYENNE WY    CLOUDY    40  37  89 NE9       30.09R
SCOTTSBLUFF NE LGT RAIN  46  43  89 NE7       30.12S
OMAHA NE       RAIN      63  60  90 N10       29.94F
DES MOINES IA  FAIR      73  63  70 CALM      29.92R
DAVENPORT IA   FAIR      69  61  75 SE7       29.98S
CHICAGO IL     FAIR      72  59  63 SE7       29.99S
EAU CLAIRE WI  FAIR      70  63  78 SW5       29.92R
LA CROSSE WI   FAIR      75  65  70 S7        29.93R
$$

  *****  SOME NATIONAL WEATHER *****

CITY           SKY/WX    TMP DP  RH WIND       PRES   REMARKS
LA GUARDIA NY  FAIR      73  65  75 NE3       30.01F
RALEIGH NC     MOCLDY    64  62  93 CALM      29.99F
ATLANTA GA     FAIR      73  64  73 NE7       30.01S
NEW ORLEANS LA FAIR      74  70  87 CALM      29.90S
OKLAHOMA CITY  MOCLDY    72  63  73 S8        29.91R
ALBUQUERQUE NM FAIR      59  23  25 NW10      29.96R
SALT LAKE CITY CLOUDY    46  41  82 SE6       30.12S
LOS ANGELES CA FAIR      68  52  56 SE5       29.86S
BOISE ID       FAIR      48  36  63 CALM      30.05S
SEATTLE WA     CLOUDY    60  49  66 CALM      30.10F
$$

*** WEATHER ACROSS MANITOBA...SASKATCHEWAN AND ONTARIO ***
                ***ONTARIO***

CITY           SKY/WX    TMP DP  RH WIND       PRES   REMARKS
GERALDTON      PTCLDY    66  61  82 S8        29.79F
THUNDER BAY    CLOUDY    63  63 100 VRB2      29.82S
SIOUX LOOKOUT  LGT RAIN  52  52 100 NW10      29.85R FOG
TORONTO        CLEAR     73  64  73 N5        30.08S
BIG TROUT LK   LGT RAIN  45  45 100 N9G17     29.91F FOG
PICKLE LAKE    NOT AVBL
DRYDEN         CLOUDY    52  52 100 NW7       29.88R FOG
KENORA         DRZL/FOG  48  48 100 NW12      29.94R VSB 3/4
$$
                *** MANITOBA***

CITY           SKY/WX    TMP DP  RH WIND       PRES   REMARKS
BRANDON        CLOUDY    46  43  87 N8        30.11S
DAUPHIN        CLOUDY    46  46 100 NW6       30.12R
ISLAND LAKE    NOT AVBL
PILOT MOUND      N/A     46  45  93 N9          N/A
THE PAS        PTCLDY    43  39  87 E3        30.12S
THOMPSON       MOCLDY    36  32  87 NE5       30.15R
WINNIPEG       CLOUDY    48  46  93 NW9       30.05R
LYNN LAKE      CLOUDY    36  36 100 CALM      30.12S
CHURCHILL      CLOUDY    37  34  87 SW5       30.16F
GILLAM         CLOUDY    37  34  87 NE6       30.15S
$$
                ***SASKATCHEWAN***

CITY           SKY/WX    TMP DP  RH WIND       PRES   REMARKS
ESTEVAN        CLOUDY    45  43  93 W2        30.13R
KINDERSLEY     PTCLDY    39  30  70 S2        30.01F
LLOYDMINSTER   CLOUDY    46  36  66 S12       29.96S
PRINCE ALBERT  CLOUDY    46  39  76 E5        30.07F
REGINA         CLOUDY    43  36  75 S9        30.11F
YORKTON        CLOUDY    45  39  81 S2        30.12R
N. BATTLEFORD  CLOUDY    43  34  70 SE7       30.03S
LA RONGE       CLEAR     43  39  87 S6        30.05S
SASKATOON      CLEAR     41  36  81 S7        30.06S
SWIFT CURRENT    N/A     41  32  70 S12       30.05S
$$
NOTE: THESE ARE AUTOMATED STATIONS WITH LIMITED QUALITY CONTROL
      "FAIR" INDICATES FEW OR NO CLOUDS BELOW 12,000 FEET WITH NO
      SIGNIFICANT WEATHER AND/OR OBSTRUCTIONS TO VISIBILITY.
      SKY/WX - SKY CONDITION AND SIGNIFICANT WEATHER.
      TMP - AIR TEMPERATURE.    DP   - DEWPOINT TEMPERATURE.
      RH  - RELATIVE HUMIDITY.  PRES - PRESSURE.
      HX  - HEAT INDEX.         WCI  - WIND CHILL INDEX.
$




USA.gov is the U.S. government's official web portal to all federal, state and local government web resources and services.